Location: Unspecified
(54.1780°N, 0.0000°E)
Time: 06:35:59
(UTC+00:00)

S-56A Canister/Altair - Pass Details

Date: 23 June 2019
Orbit: 633 x 2499 km, 38.9° (Epoch: 13 October)

Event Time Altitude Azimuth Distance (km) Brightness Sun altitude
Rises 19:11:48 0° 256° (WSW) 4,139 12.1 9.3°
Reaches altitude 10° 19:16:15 10° 235° (SW) 2,795 10.8 8.7°
Maximum altitude 19:19:44 15° 203° (SSW) 2,179 9.8 8.3°
Drops below altitude 10° 19:22:43 10° 168° (SSE) 2,317 9.6 7.9°
Sets 19:25:52 0° 144° (SE) 3,064 10.0 7.5°
